QPF
0.00 0.00 0.00 0.00 0.00 0.00 0.00 0.00 0.00 0.00 0.00 0.00 0.00 0.00 0.00 0.00 0.00 0.00 0.00 0.00 0.00 0.00 0.00 0.00 0.00 0.00 0.00 0.00 0.00 0.00 0.00 0.00 0.00 0.00 0.00 0.00 0.00 0.00 0.00 0.00 0.00 0.00 0.00
0.00 0.00 0.00 0.00 0.00 0.00 0.00 0.00 0.00 0.00 0.00 0.00 0.00 0.00 0.00 0.00 0.00 0.00 0.00 0.00 0.00 0.00 0.00 0.00 0.00 0.00 0.00 0.00 0.00 0.00 0.00 0.00 0.00 0.00 0.00 0.00 0.00 0.00 0.00 0.00 0.00 0.00 0.00
0.00 0.00 0.00 0.00 0.00 0.00 0.00 0.00 0.00 0.00 0.00 0.00 0.00 0.00 0.00 0.00 0.00 0.00 0.00 0.00 0.00 0.00 0.00 0.00 0.00 0.00 0.00 0.00 0.00 0.00 0.00 0.00 0.00 0.00 0.00 0.00 0.00 0.00 0.00 0.00 0.00 0.00 0.00
0.00 0.00 0.00 0.00 0.00 0.00 0.00 0.00 0.00 0.00 0.00 0.00 0.00 0.00 0.00 0.00 0.00 0.00 0.00 0.00 0.00 0.00 0.00 0.00 0.00 0.00 0.00 0.00 0.00 0.00 0.00 0.00 0.00 0.00 0.00 0.00 0.00 0.00 0.00 0.00 0.00 0.00 0.00
0.00 0.00 0.00 0.00 0.00 0.00 0.00 0.00 0.00 0.00 0.00 0.00 0.00 0.00 0.00 0.00 0.00 0.00 0.00 0.00 0.00 0.00 0.00 0.00 0.00 0.00 0.00 0.00 0.00 0.00 0.00 0.00 0.00 0.00 0.00 0.00 0.00 0.00 0.00 0.00 0.00 0.00 0.00
0.00 0.00 0.00 0.00 0.00 0.00 0.00 0.00 0.00 0.00 0.00 0.00 0.00 0.00 0.00 0.00 0.00 0.00 0.00 0.00 0.00 0.00 0.00 0.00 0.00 0.00 0.00 0.00 0.00 0.00 0.00 0.00 0.00 0.00 0.00 0.00 0.00 0.00 0.00 0.00 0.00 0.00 0.00
0.00 0.00 0.00 0.00 0.00 0.00 0.00 0.00 0.00 0.00 0.00 0.00 0.00 0.00 0.00 0.00 0.00 0.00 0.00 0.00 0.00 0.00 0.00 0.00 0.00 0.00 0.00 0.00 0.00 0.00 0.00 0.00 0.00 0.00 0.00 0.00 0.00 0.00 0.00 0.00 0.00 0.00 0.00
0.00 0.00 0.00 0.00 0.00 0.00 0.00 0.00 0.00 0.00 0.00 0.00 0.00 0.00 0.00 0.00 0.00 0.00 0.00 0.00 0.00 0.00 0.00 0.00 0.00 0.00 0.00 0.00 0.00 0.00 0.00 0.00 0.00 0.00 0.00 0.00 0.00 0.00 0.01 0.00 0.00 0.00 0.00
0.00 0.00 0.00 0.00 0.00 0.00 0.00 0.00 0.00 0.00 0.00 0.00 0.00 0.00 0.00 0.00 0.00 0.00 0.00 0.00 0.00 0.00 0.00 0.00 0.00 0.00 0.00 0.00 0.00 0.00 0.00 0.00 0.00 0.00 0.00 0.00 0.01 0.00 0.01 0.01 0.00 0.00 0.00
0.00 0.00 0.00 0.00 0.00 0.00 0.00 0.00 0.00 0.00 0.00 0.00 0.00 0.00 0.00 0.00 0.00 0.00 0.00 0.00 0.00 0.00 0.00 0.00 0.00 0.00 0.00 0.00 0.00 0.00 0.00 0.00 0.00 0.00 0.00 0.00 0.01 0.01 0.02 0.02 0.01 0.00 0.00
0.00 0.00 0.00 0.00 0.00 0.00 0.00 0.00 0.00 0.00 0.00 0.00 0.00 0.00 0.00 0.00 0.00 0.00 0.00 0.00 0.00 0.00 0.00 0.00 0.00 0.00 0.00 0.00 0.00 0.00 0.00 0.00 0.00 0.00 0.00 0.00 0.01 0.02 0.02 0.04 0.02 0.00 0.00
0.00 0.00 0.00 0.00 0.00 0.00 0.00 0.00 0.00 0.00 0.00 0.00 0.00 0.00 0.00 0.00 0.00 0.00 0.00 0.00 0.00 0.00 0.00 0.00 0.00 0.00 0.00 0.00 0.00 0.00 0.00 0.00 0.00 0.00 0.00 0.01 0.01 0.03 0.02 0.05 0.00 0.00 0.00
0.00 0.00 0.00 0.00 0.00 0.00 0.00 0.00 0.00 0.00 0.00 0.00 0.00 0.00 0.00 0.00 0.00 0.00 0.00 0.00 0.00 0.00 0.00 0.00 0.00 0.00 0.00 0.00 0.00 0.00 0.00 0.00 0.00 0.00 0.00 0.00 0.01 0.02 0.02 0.00 0.00 0.00 0.00
0.00 0.00 0.00 0.00 0.00 0.00 0.00 0.00 0.00 0.00 0.00 0.00 0.00 0.00 0.00 0.00 0.00 0.00 0.00 0.00 0.00 0.00 0.00 0.00 0.00 0.00 0.00 0.00 0.00 0.00 0.00 0.00 0.02 0.01 0.00 0.00 0.00 0.01 0.01 0.00 0.00 0.00 0.00
0.00 0.00 0.00 0.00 0.00 0.00 0.00 0.00 0.00 0.00 0.00 0.00 0.00 0.00 0.00 0.00 0.00 0.00 0.00 0.00 0.00 0.00 0.00 0.00 0.00 0.00 0.00 0.00 0.00 0.00 0.00 0.00 0.01 0.00 0.00 0.01 0.01 0.00 0.00 0.00 0.00 0.00 0.00
0.00 0.00 0.00 0.00 0.00 0.00 0.00 0.00 0.00 0.00 0.00 0.00 0.00 0.00 0.00 0.00 0.00 0.00 0.00 0.00 0.00 0.00 0.00 0.00 0.00 0.00 0.00 0.00 0.00 0.00 0.00 0.00 0.00 0.00 0.00 0.00 0.01 0.00 0.00 0.00 0.00 0.00 0.00
0.00 0.00 0.00 0.00 0.00 0.00 0.00 0.00 0.00 0.00 0.00 0.00 0.00 0.00 0.00 0.00 0.00 0.00 0.00 0.00 0.00 0.00 0.00 0.00 0.00 0.00 0.00 0.00 0.00 0.00 0.00 0.00 0.00 0.00 0.00 0.00 0.00 0.00 0.00 0.00 0.00 0.00 0.00
0.01 0.01 0.01 0.00 0.00 0.00 0.00 0.00 0.00 0.00 0.00 0.00 0.00 0.00 0.00 0.00 0.00 0.00 0.00 0.00 0.00 0.00 0.00 0.00 0.00 0.00 0.00 0.00 0.00 0.00 0.00 0.00 0.00 0.00 0.01 0.01 0.00 0.01 0.00 0.01 0.00 0.00 0.00
0.01 0.02 0.03 0.03 0.01 0.01 0.00 0.00 0.00 0.00 0.00 0.00 0.00 0.00 0.00 0.00 0.00 0.00 0.00 0.00 0.00 0.00 0.00 0.00 0.00 0.00 0.00 0.00 0.00 0.00 0.00 0.00 0.00 0.01 0.01 0.01 0.01 0.01 0.00 0.00 0.00 0.00 0.00
0.20 0.14 0.10 0.20 0.07 0.05 0.03 0.01 0.00 0.02 0.01 0.00 0.00 0.02 0.07 0.02 0.00 0.00 0.00 0.00 0.00 0.00 0.00 0.00 0.00 0.00 0.00 0.00 0.00 0.00 0.00 0.00 0.00 0.01 0.01 0.01 0.01 0.00 0.00 0.00 0.00 0.00 0.00
0.20 0.22 0.16 0.15 0.17 0.16 0.10 0.06 0.07 0.09 0.10 0.12 0.13 0.49 0.30 0.11 0.00 0.00 0.04 0.00 0.00 0.00 0.00 0.00 0.00 0.00 0.00 0.00 0.00 0.00 0.00 0.00 0.00 0.00 0.00 0.00 0.00 0.00 0.00 0.00 0.00 0.00 0.00
0.03 0.05 0.06 0.08 0.14 0.15 0.17 0.18 0.13 0.21 0.26 0.48 0.59 0.61 0.26 0.22 0.04 0.00 0.00 0.00 0.00 0.00 0.00 0.00 0.00 0.00 0.00 0.00 0.00 0.00 0.00 0.00 0.00 0.00 0.00 0.00 0.00 0.00 0.00 0.00 0.00 0.00 0.00
0.00 0.00 0.00 0.01 0.03 0.06 0.08 0.09 0.10 0.14 0.17 0.18 0.16 0.17 0.19 0.14 0.04 0.00 0.00 0.00 0.00 0.00 0.00 0.00 0.00 0.00 0.00 0.00 0.00 0.00 0.00 0.00 0.00 0.00 0.00 0.00 0.00 0.00 0.00 0.00 0.00 0.00 0.00
0.00 0.00 0.00 0.00 0.00 0.00 0.01 0.01 0.01 0.01 0.02 0.03 0.04 0.05 0.04 0.03 0.03 0.01 0.00 0.00 0.00 0.00 0.00 0.00 0.00 0.00 0.00 0.00 0.00 0.00 0.00 0.00 0.00 0.00 0.00 0.00 0.00 0.00 0.00 0.00 0.00 0.00 0.00
0.00 0.00 0.00 0.00 0.00 0.00 0.00 0.00 0.00 0.00 0.00 0.01 0.02 0.02 0.02 0.01 0.01 0.01 0.00 0.00 0.00 0.00 0.00 0.00 0.00 0.00 0.00 0.00 0.00 0.00 0.00 0.00 0.00 0.00 0.00 0.00 0.00 0.00 0.00 0.00 0.00 0.00 0.00
0.00 0.00 0.00 0.00 0.00 0.00 0.00 0.00 0.00 0.00 0.00 0.00 0.00 0.00 0.00 0.00 0.00 0.00 0.00 0.00 0.00 0.00 0.00 0.00 0.00 0.00 0.00 0.00 0.00 0.00 0.00 0.00 0.00 0.00 0.00 0.00 0.00 0.00 0.00 0.00 0.00 0.00 0.00
MSLP
1009.96 1010.64 1011.42 1012.16 1012.77 1013.36 1013.29 1013.51 1013.83 1013.82 1014.17 1014.48 1014.73 1014.92 1015.16 1015.47 1015.68 1015.98 1016.19 1016.23 1016.60 1016.69 1016.86 1016.85 1016.85 1016.82 1016.61 1016.22 1016.22 1016.16 1016.10 1016.30 1016.37 1015.85 1015.48 1016.14 1016.87 1017.23 1017.76 1017.69 1017.43 1017.39 1016.84
1009.16 1009.88 1010.67 1011.48 1012.06 1012.51 1013.01 1013.14 1013.56 1013.68 1013.89 1014.21 1014.39 1014.65 1014.89 1015.12 1015.30 1015.50 1015.72 1015.60 1015.84 1016.09 1016.15 1016.24 1016.28 1016.24 1016.48 1016.32 1016.02 1015.99 1016.42 1016.46 1016.66 1016.36 1016.37 1016.43 1016.72 1017.07 1017.46 1017.77 1017.73 1016.74 1016.27
1008.36 1009.21 1009.86 1010.49 1011.18 1011.66 1012.15 1012.73 1013.04 1013.34 1013.54 1013.73 1013.98 1014.14 1014.42 1014.68 1014.89 1015.04 1015.17 1015.27 1015.36 1015.38 1015.53 1015.54 1015.61 1015.74 1015.52 1015.76 1015.72 1015.95 1015.88 1016.27 1016.41 1016.53 1016.27 1016.14 1016.34 1016.55 1016.81 1016.88 1016.84 1016.65 1016.30
1007.57 1008.39 1009.02 1009.57 1010.14 1010.76 1011.35 1011.90 1012.42 1012.74 1013.05 1013.20 1013.34 1013.59 1013.87 1014.16 1014.34 1014.47 1014.56 1014.70 1014.80 1014.75 1014.74 1014.79 1014.83 1014.74 1014.83 1015.27 1015.69 1015.79 1015.94 1015.97 1016.00 1016.17 1016.00 1016.02 1015.87 1015.85 1016.23 1016.31 1015.96 1015.81 1016.09
1006.57 1007.49 1008.12 1008.76 1009.28 1009.93 1010.41 1011.02 1011.57 1012.04 1012.34 1012.62 1012.86 1013.03 1013.26 1013.53 1013.71 1013.92 1013.99 1014.05 1014.12 1014.09 1013.99 1013.90 1013.84 1013.75 1014.11 1014.60 1014.95 1014.85 1015.17 1015.56 1015.56 1015.49 1015.28 1015.13 1015.26 1015.12 1015.24 1015.69 1015.73 1015.55 1015.22
1005.64 1006.46 1007.32 1008.04 1008.52 1008.96 1009.57 1010.04 1010.74 1011.22 1011.64 1011.98 1012.22 1012.42 1012.65 1012.71 1012.69 1013.17 1013.41 1013.28 1013.33 1013.41 1013.28 1013.14 1012.96 1012.91 1013.24 1013.57 1014.06 1014.35 1015.08 1015.01 1015.18 1014.95 1014.46 1014.72 1014.74 1015.33 1015.27 1015.33 1015.42 1015.42 1015.72
1004.96 1005.61 1006.47 1007.24 1007.76 1008.22 1008.72 1009.26 1009.67 1010.32 1010.85 1011.21 1011.48 1011.81 1011.92 1012.06 1012.22 1012.54 1012.85 1013.05 1012.97 1012.66 1012.48 1012.33 1012.18 1011.80 1011.82 1012.16 1012.90 1013.26 1013.91 1014.67 1014.72 1014.50 1014.64 1014.48 1014.84 1015.14 1015.44 1015.35 1015.40 1015.50 1015.38
1004.14 1004.70 1005.42 1006.05 1006.68 1007.34 1007.92 1008.32 1008.75 1009.18 1009.69 1010.18 1010.57 1010.96 1011.28 1011.43 1011.78 1012.10 1012.45 1012.73 1012.49 1012.25 1012.14 1011.93 1011.63 1011.39 1011.52 1011.63 1011.71 1012.23 1012.95 1013.19 1013.99 1014.38 1014.17 1014.20 1014.66 1015.08 1015.40 1015.82 1015.62 1015.03 1015.06
1003.11 1003.76 1004.40 1005.18 1005.69 1006.22 1006.66 1007.15 1007.71 1008.18 1008.57 1009.02 1009.54 1009.92 1010.27 1010.54 1010.95 1011.40 1012.00 1012.10 1011.84 1011.53 1011.44 1011.27 1011.10 1010.84 1010.92 1011.30 1011.47 1011.46 1011.76 1012.22 1012.43 1013.28 1013.94 1014.34 1014.80 1014.97 1015.32 1015.84 1015.99 1016.01 1016.24
1002.17 1002.95 1003.81 1004.35 1005.01 1005.45 1005.79 1006.14 1006.54 1007.10 1007.50 1007.84 1008.26 1008.67 1009.10 1009.40 1009.99 1010.50 1011.12 1011.17 1010.75 1010.46 1010.24 1009.98 1009.95 1010.03 1010.11 1010.38 1010.71 1010.85 1011.04 1011.52 1012.04 1012.83 1014.04 1014.53 1014.73 1014.82 1015.15 1015.94 1015.85 1015.78 1015.64
1001.92 1002.66 1003.16 1003.70 1004.05 1004.45 1005.03 1005.54 1005.89 1006.19 1006.49 1006.90 1007.18 1007.43 1007.90 1008.36 1008.87 1009.39 1009.92 1010.24 1009.87 1009.40 1008.90 1008.53 1008.24 1008.04 1008.28 1009.07 1009.75 1009.97 1010.16 1011.04 1011.70 1012.64 1013.68 1014.16 1014.56 1014.88 1014.81 1014.68 1015.24 1015.12 1014.90
1001.45 1001.74 1002.32 1002.87 1003.38 1003.68 1004.27 1004.71 1005.23 1005.68 1005.86 1006.03 1006.19 1006.49 1006.53 1007.16 1007.76 1008.23 1008.72 1009.11 1009.03 1009.00 1008.28 1007.91 1007.86 1008.79 1008.80 1009.14 1009.54 1009.92 1010.34 1010.91 1011.86 1012.58 1013.19 1013.68 1014.09 1014.38 1014.30 1014.02 1013.92 1013.91 1014.04
1000.92 1001.22 1001.66 1002.20 1002.75 1003.23 1003.44 1004.00 1004.38 1004.85 1004.92 1004.93 1005.10 1005.34 1005.21 1005.45 1005.89 1006.63 1007.31 1007.77 1008.02 1008.71 1008.01 1007.90 1008.68 1008.97 1009.10 1009.61 1009.94 1009.99 1010.42 1010.89 1011.53 1012.21 1012.40 1012.93 1013.37 1013.49 1013.23 1013.00 1012.80 1013.30 1013.86
1000.72 1000.97 1001.28 1001.62 1002.08 1002.48 1002.85 1003.10 1003.50 1003.38 1003.60 1003.80 1003.53 1003.71 1003.83 1004.02 1004.23 1004.54 1005.73 1006.85 1007.47 1007.81 1007.68 1007.72 1007.86 1008.39 1008.82 1009.05 1009.71 1010.35 1010.23 1010.49 1010.78 1011.24 1011.85 1012.41 1012.75 1012.74 1013.02 1012.65 1012.70 1012.99 1013.18
1000.64 1000.79 1001.00 1001.08 1001.40 1001.70 1001.97 1001.74 1002.05 1002.26 1002.14 1002.52 1002.87 1002.95 1002.66 1002.64 1002.76 1002.92 1003.40 1004.32 1005.21 1005.31 1005.99 1006.27 1007.04 1007.57 1008.34 1008.82 1009.00 1009.34 1009.67 1010.10 1010.61 1011.04 1011.52 1011.92 1012.29 1012.52 1012.48 1012.50 1012.40 1012.72 1012.78
1001.25 1000.64 1000.22 1000.30 1000.31 1000.83 1000.76 1001.30 1001.24 1001.51 1001.96 1001.96 1002.37 1002.89 1001.54 1002.43 1002.85 1002.92 1003.32 1003.86 1004.22 1004.59 1005.23 1005.21 1005.41 1006.26 1007.04 1007.05 1007.33 1007.91 1008.74 1009.32 1009.81 1010.40 1010.94 1011.32 1011.86 1012.06 1012.11 1012.04 1012.27 1012.48 1012.08
1001.94 1001.02 999.58 999.72 999.22 999.32 999.86 999.84 1000.14 1000.76 1000.98 1001.50 1001.84 1002.26 1002.65 1002.78 1003.45 1003.72 1004.02 1004.54 1005.03 1005.09 1004.88 1004.66 1004.52 1004.67 1005.73 1005.86 1006.05 1006.44 1007.41 1008.30 1009.13 1010.10 1010.52 1010.98 1011.34 1011.66 1011.96 1011.77 1011.89 1011.60 1011.07
1002.32 1001.32 1000.26 998.75 999.00 998.52 998.42 998.60 998.88 999.06 999.64 1000.75 1001.23 1001.35 1001.47 1002.13 1003.36 1004.00 1004.23 1004.37 1004.99 1005.02 1004.60 1004.04 1003.78 1003.79 1004.60 1005.17 1005.32 1006.42 1007.44 1008.11 1009.02 1009.88 1010.40 1010.67 1011.03 1011.33 1011.62 1011.37 1011.25 1011.08 1010.68
1004.20 1003.10 1001.93 1000.92 998.53 998.27 998.12 997.96 998.02 998.35 998.87 998.91 999.00 1000.63 1001.42 1002.39 1003.13 1003.82 1004.07 1003.97 1003.44 1003.10 1002.92 1002.90 1003.16 1003.12 1003.55 1004.33 1005.06 1006.30 1007.32 1008.01 1008.72 1009.30 1009.74 1010.19 1010.63 1010.92 1010.90 1010.65 1010.50 1010.66 1010.48
1004.56 1004.44 1003.74 1002.97 1002.16 1001.24 1000.41 999.15 998.53 999.19 999.36 998.94 999.08 998.82 1000.96 1002.04 1002.74 1002.96 1003.41 1003.28 1002.87 1002.37 1001.85 1001.38 1001.52 1002.16 1003.04 1003.92 1005.10 1006.24 1007.00 1007.82 1008.44 1008.80 1009.21 1009.74 1009.90 1010.25 1009.98 1009.73 1009.78 1009.84 1009.55
1005.09 1004.87 1004.31 1004.20 1003.87 1003.62 1003.25 1002.96 1002.62 1002.43 1002.06 1001.53 1002.06 1002.01 1001.46 1000.43 1000.10 1000.08 1001.10 1001.22 1001.37 1001.41 1001.20 1000.96 1001.01 1001.71 1003.05 1003.95 1005.08 1005.90 1006.44 1007.06 1007.68 1008.13 1008.42 1008.90 1009.31 1009.38 1009.16 1008.66 1009.02 1008.96 1008.96
1006.22 1005.95 1005.64 1004.69 1005.33 1004.77 1004.60 1004.52 1004.29 1004.31 1004.38 1003.94 1003.98 1003.25 1002.70 1001.97 1000.50 999.98 999.80 1000.29 1000.24 1000.40 1001.16 1001.62 1001.83 1002.27 1002.71 1003.94 1004.86 1005.36 1005.69 1006.25 1007.02 1007.30 1007.76 1008.14 1008.40 1008.32 1007.86 1008.39 1008.37 1008.51 1008.64
1007.62 1006.82 1006.64 1005.74 1005.96 1005.34 1005.26 1005.54 1005.43 1005.89 1005.93 1005.51 1005.32 1005.27 1004.38 1003.14 1003.84 1003.29 1002.68 1002.48 1002.24 1002.28 1002.51 1002.88 1002.96 1002.80 1003.34 1003.77 1004.15 1004.51 1004.75 1005.22 1005.63 1006.53 1007.02 1007.21 1007.28 1006.76 1007.26 1007.61 1007.60 1007.96 1008.45
1007.85 1007.28 1008.29 1007.98 1006.72 1005.51 1005.42 1005.68 1005.72 1006.43 1006.62 1006.47 1006.15 1006.66 1006.99 1006.02 1006.07 1006.06 1005.26 1004.86 1004.49 1004.30 1004.14 1004.06 1003.80 1003.36 1003.18 1003.61 1003.70 1003.70 1003.93 1003.97 1005.06 1005.88 1006.07 1006.27 1005.74 1006.44 1006.50 1007.07 1007.28 1007.46 1008.10
1008.07 1007.87 1009.44 1009.59 1007.35 1007.57 1006.63 1006.22 1006.42 1006.23 1006.65 1007.30 1005.88 1007.96 1008.02 1007.57 1006.14 1007.38 1007.70 1006.90 1006.10 1005.50 1004.78 1004.36 1004.18 1003.22 1003.07 1003.16 1003.15 1003.33 1003.65 1004.52 1004.66 1005.10 1005.50 1005.49 1005.56 1006.15 1006.25 1006.64 1006.72 1007.26 1008.02
1009.30 1009.60 1009.18 1008.08 1008.00 1008.80 1008.10 1006.33 1007.82 1006.62 1007.12 1007.27 1006.96 1007.28 1008.12 1008.57 1008.64 1008.97 1008.76 1008.23 1007.64 1006.55 1005.41 1004.88 1004.23 1003.86 1003.37 1003.04 1003.10 1003.58 1004.32 1004.84 1004.98 1004.98 1004.88 1005.04 1005.44 1005.65 1005.75 1006.08 1006.54 1007.05 1007.88
Thickness
5829 5828 5824 5821 5819 5816 5820 5821 5821 5823 5822 5820 5819 5818 5816 5814 5813 5810 5808 5808 5804 5804 5803 5801 5800 5800 5798 5799 5795 5790 5784 5777 5763 5765 5769 5759 5744 5734 5722 5714 5707 5700 5696
5833 5831 5827 5824 5822 5820 5819 5822 5822 5822 5823 5821 5821 5820 5818 5816 5816 5814 5811 5812 5809 5806 5806 5805 5803 5804 5798 5796 5795 5791 5781 5777 5766 5758 5756 5749 5742 5734 5721 5709 5701 5699 5692
5834 5831 5829 5828 5826 5824 5823 5822 5823 5823 5823 5824 5823 5822 5820 5818 5817 5817 5816 5814 5813 5812 5810 5809 5808 5806 5804 5799 5797 5790 5786 5777 5769 5758 5752 5751 5742 5734 5723 5713 5705 5697 5690
5836 5833 5831 5831 5832 5830 5828 5826 5824 5825 5825 5825 5826 5825 5823 5821 5820 5820 5820 5818 5816 5816 5816 5815 5813 5812 5808 5802 5795 5790 5783 5775 5771 5762 5755 5747 5741 5733 5722 5711 5706 5698 5681
5837 5834 5834 5835 5836 5834 5832 5830 5829 5827 5827 5828 5827 5826 5826 5824 5823 5822 5821 5821 5819 5819 5821 5821 5821 5819 5814 5807 5800 5796 5789 5778 5771 5764 5758 5752 5741 5734 5722 5711 5699 5691 5683
5840 5838 5837 5835 5835 5835 5834 5833 5830 5829 5828 5828 5828 5827 5825 5828 5829 5824 5823 5824 5823 5820 5820 5823 5825 5823 5818 5813 5805 5797 5785 5780 5770 5764 5760 5750 5743 5729 5720 5710 5698 5687 5670
5840 5841 5838 5836 5835 5836 5836 5834 5832 5830 5830 5829 5829 5828 5828 5829 5829 5825 5823 5823 5822 5823 5824 5825 5825 5829 5827 5825 5812 5805 5792 5779 5773 5768 5756 5747 5735 5728 5716 5704 5695 5684 5673
5843 5842 5842 5841 5839 5837 5835 5835 5834 5835 5832 5830 5830 5830 5829 5831 5828 5824 5821 5821 5821 5823 5824 5824 5825 5826 5827 5824 5819 5809 5799 5792 5776 5764 5760 5752 5740 5727 5712 5698 5690 5685 5674
5847 5846 5845 5842 5840 5840 5839 5838 5839 5836 5835 5834 5833 5832 5831 5832 5829 5825 5819 5820 5821 5823 5824 5826 5826 5827 5828 5821 5815 5809 5802 5792 5787 5775 5760 5749 5737 5724 5710 5696 5684 5668 5650
5851 5849 5846 5844 5840 5839 5840 5841 5842 5840 5837 5838 5835 5836 5835 5835 5831 5826 5821 5823 5823 5825 5828 5831 5830 5830 5830 5823 5817 5810 5800 5793 5785 5773 5758 5745 5733 5720 5708 5691 5682 5668 5658
5849 5846 5845 5844 5842 5841 5839 5838 5838 5838 5838 5837 5837 5840 5839 5838 5835 5828 5823 5824 5826 5828 5832 5834 5840 5841 5839 5829 5820 5816 5807 5796 5783 5770 5754 5743 5730 5716 5706 5697 5682 5670 5662
5847 5848 5846 5845 5842 5841 5837 5836 5835 5833 5832 5834 5836 5836 5841 5840 5835 5831 5827 5823 5828 5824 5830 5836 5838 5830 5827 5822 5815 5811 5800 5790 5777 5765 5753 5741 5728 5715 5706 5699 5689 5678 5667
5845 5844 5843 5842 5839 5837 5836 5832 5831 5830 5831 5833 5834 5834 5839 5844 5845 5838 5831 5827 5824 5818 5829 5830 5822 5820 5817 5812 5805 5801 5793 5786 5774 5762 5755 5743 5731 5720 5711 5702 5693 5679 5664
5838 5838 5838 5836 5834 5834 5834 5833 5830 5833 5832 5833 5838 5839 5842 5843 5846 5849 5841 5831 5823 5820 5820 5822 5824 5818 5813 5811 5802 5791 5790 5783 5776 5766 5755 5743 5732 5721 5707 5701 5690 5677 5665
5831 5832 5831 5831 5829 5828 5829 5835 5836 5837 5839 5836 5838 5841 5840 5841 5848 5852 5849 5842 5836 5835 5827 5825 5821 5817 5808 5803 5799 5794 5788 5780 5772 5763 5752 5741 5729 5717 5707 5697 5687 5673 5662
5813 5822 5828 5828 5829 5825 5827 5825 5832 5832 5830 5831 5830 5832 5848 5841 5840 5842 5839 5833 5832 5829 5826 5822 5822 5817 5809 5808 5805 5799 5789 5779 5773 5762 5751 5739 5727 5715 5704 5695 5683 5671 5664
5799 5810 5825 5823 5827 5827 5823 5824 5823 5828 5826 5825 5825 5824 5824 5827 5824 5822 5820 5817 5815 5816 5818 5819 5819 5820 5811 5811 5809 5805 5794 5783 5771 5757 5747 5735 5724 5713 5700 5693 5682 5675 5670
5788 5796 5809 5823 5821 5825 5827 5827 5827 5828 5827 5824 5822 5823 5823 5819 5811 5810 5808 5811 5812 5808 5811 5812 5815 5817 5811 5807 5807 5796 5783 5775 5763 5750 5740 5730 5720 5710 5698 5690 5681 5673 5667
5757 5772 5784 5793 5817 5818 5822 5824 5825 5824 5825 5829 5834 5820 5813 5805 5801 5797 5798 5808 5811 5813 5815 5814 5812 5815 5811 5805 5800 5787 5775 5765 5757 5747 5737 5726 5717 5705 5698 5691 5685 5668 5663
5744 5745 5754 5762 5771 5780 5790 5803 5810 5808 5812 5821 5821 5824 5810 5805 5805 5805 5799 5800 5804 5808 5814 5819 5818 5814 5805 5798 5787 5776 5768 5758 5750 5743 5735 5724 5715 5705 5700 5696 5686 5675 5671
5727 5729 5734 5739 5743 5748 5752 5757 5764 5766 5772 5782 5781 5787 5797 5809 5816 5818 5808 5807 5805 5806 5809 5813 5812 5807 5796 5788 5777 5769 5761 5754 5748 5740 5733 5722 5713 5706 5700 5701 5689 5680 5672
5704 5707 5709 5720 5715 5725 5731 5735 5739 5740 5745 5755 5759 5766 5772 5780 5792 5803 5807 5803 5807 5807 5803 5799 5796 5793 5789 5778 5769 5762 5758 5752 5743 5737 5729 5721 5713 5708 5707 5695 5689 5680 5671
5676 5687 5691 5700 5699 5709 5714 5715 5718 5718 5720 5729 5734 5738 5746 5742 5739 5758 5769 5773 5779 5782 5782 5779 5777 5779 5774 5769 5766 5758 5754 5750 5745 5733 5725 5720 5714 5714 5704 5694 5690 5679 5668
5661 5667 5660 5669 5685 5700 5703 5705 5708 5703 5703 5706 5713 5712 5713 5721 5722 5723 5737 5744 5749 5753 5756 5757 5759 5763 5765 5760 5758 5754 5751 5750 5738 5729 5725 5719 5720 5709 5703 5692 5686 5680 5668
5644 5650 5641 5638 5665 5667 5679 5686 5688 5694 5695 5691 5701 5688 5688 5695 5710 5704 5701 5713 5723 5731 5738 5743 5744 5754 5756 5753 5752 5748 5743 5736 5731 5725 5719 5717 5713 5703 5697 5689 5685 5676 5664
5616 5616 5625 5638 5642 5638 5646 5668 5660 5675 5672 5675 5680 5680 5676 5672 5676 5677 5680 5686 5695 5708 5720 5726 5732 5735 5740 5743 5740 5735 5728 5723 5719 5717 5715 5711 5704 5699 5694 5686 5679 5672 5660